Wichita Mid Continent Airport
KICT : rendu visible

Aérodrome :











RETROUVEZ-NOUS SUR...

 
LOGIN :

S'inscrire | Disclaimer

   EN    FR    IT 

 









Légende :    VFR   VFR Marginal   IFR   IFR Intensif   IFR Très Intensif
Visi : 
Plafond : 
>= 8 km
>= 3000ft
5 à 8 km
1000 à 3000 ft
1500m à 5 km
500 à 1000 ft
800 à 1500m
200 à 500 ft
< 800m
< 200 ft
Symboles :   Orages  Brouillard  Fortes neiges  Fortes précipitations  Vent > 20 kt






- Altitude de l'aérodrome : 1333 ft
- Code IATA : ICT


KICT - Wichita Mid Continent

DERNIER METAR :
  • 060353Z 00000KT 7SM CLR 14/09 A3015 RMK AO2 SLP203 T01440089

METARs EXPIRÉS :
  • 060253Z COR 25006KT 10SM FEW190 14/09 A3015 RMK AO2 SLP202 T01440089 51011
  • 060153Z 31004KT 10SM FEW190 20/09 A3014 RMK AO2 SLP197 T02000094

TAF KICT
Valide du 06 à 00h jusqu'au 07 à 00h UTC


052329Z 0600/0624 34013KT P6SM FEW080 SCT250
FM060500 35007KT P6SM SCT250
FM061600 33007KT P6SM FEW080
FIR KZKC / Amérique du Nord



MET'MAP, la Météo Aéronautique d'un coup d'oeil ! - Copyright ORBIFLY Décembre 2007 - Disclaimer

ORBIFLY MET'MAP TEAM :

Programmation & Développement : Alexandra Zaïnal
Sur une idée originale de : Baudouin d'Aumeries
Soutien technique & logistique : Manuel Goepfert
Assistance : Marc-Olivier Méhu




SOURCES & CREDITS :

   NOAA       Earth
Advisory